| time (UTC) | temp C | wind direction | speed KPH | gust KPH | rain 1hr cm | rain 24hr cm | rain mn cm | humidity % | barometer mb |
| 20260507095832 | 12 | 225 | 0.0 | 1.6 | 0.00 | 0.00 | 0.00 | 71 | 1014.9 |
| 20260507095330 | 12 | 72 | 0.0 | 1.6 | 0.00 | 0.00 | 0.00 | 70 | 1015.2 |
| 20260507094829 | 12 | 342 | 0.0 | 1.6 | 0.00 | 0.00 | 0.00 | 71 | 1015.2 |
| 20260507094328 | 12 | 144 | 0.0 | 1.6 | 0.00 | 0.00 | 0.00 | 70 | 1015.2 |
| 20260507093827 | 12 | 189 | 0.0 | 0.0 | 0.00 | 0.00 | 0.00 | 71 | 1015.2 |
| 20260507093326 | 12 | 225 | 0.0 | 0.0 | 0.00 | 0.00 | 0.00 | 71 | 1015.6 |
| 20260507092824 | 12 | 18 | 0.0 | 1.6 | 0.00 | 0.00 | 0.00 | 70 | 1015.6 |
| 20260507092323 | 12 | 153 | 1.6 | 3.2 | 0.00 | 0.00 | 0.00 | 70 | 1015.2 |
| 20260507091822 | 12 | 72 | 0.0 | 1.6 | 0.00 | 0.00 | 0.00 | 69 | 1015.6 |
| 20260507091321 | 12 | 333 | 0.0 | 1.6 | 0.00 | 0.00 | 0.00 | 70 | 1015.6 |
| 20260507090819 | 12 | 252 | 1.6 | 3.2 | 0.00 | 0.00 | 0.00 | 69 | 1015.6 |
| 20260507090318 | 12 | 153 | 1.6 | 3.2 | 0.00 | 0.00 | 0.00 | 69 | 1015.2 |
| 20260507085817 | 12 | 189 | 1.6 | 3.2 | 0.00 | 0.00 | 0.00 | 69 | 1015.6 |
| 20260507085316 | 12 | 90 | 0.0 | 3.2 | 0.00 | 0.00 | 0.00 | 69 | 1015.2 |
| 20260507084814 | 12 | 144 | 1.6 | 1.6 | 0.00 | 0.00 | 0.00 | 69 | 1015.6 |
| 20260507084313 | 12 | 180 | 1.6 | 4.8 | 0.00 | 0.00 | 0.00 | 70 | 1015.6 |
| 20260507083812 | 12 | 99 | 1.6 | 4.8 | 0.00 | 0.00 | 0.00 | 69 | 1015.6 |
| 20260507083310 | 12 | 225 | 0.0 | 1.6 | 0.00 | 0.00 | 0.00 | 70 | 1015.6 |
| 20260507082809 | 12 | 72 | 1.6 | 1.6 | 0.00 | 0.00 | 0.00 | 70 | 1015.6 |
| 20260507082308 | 12 | 108 | 1.6 | 8.0 | 0.00 | 0.00 | 0.00 | 69 | 1015.6 |
| 20260507081807 | 12 | 243 | 1.6 | 0.0 | 0.00 | 0.00 | 0.00 | 71 | 1015.6 |
| 20260507081306 | 12 | 198 | 3.2 | 3.2 | 0.00 | 0.00 | 0.00 | 70 | 1015.6 |
| 20260507080805 | 12 | 216 | 0.0 | 4.8 | 0.00 | 0.00 | 0.00 | 70 | 1015.6 |
| 20260507080303 | 12 | 342 | 0.0 | 0.0 | 0.00 | 0.00 | 0.00 | 72 | 1015.6 |
| 20260507075802 | 12 | 36 | 0.0 | 3.2 | 0.00 | 0.00 | 0.00 | 72 | 1015.6 |
| 20260507075301 | 12 | 171 | 0.0 | 0.0 | 0.00 | 0.00 | 0.00 | 73 | 1015.6 |
| 20260507074759 | 12 | 9 | 1.6 | 1.6 | 0.00 | 0.00 | 0.00 | 72 | 1015.6 |
| 20260507074258 | 12 | 315 | 0.0 | 0.0 | 0.00 | 0.00 | 0.00 | 73 | 1015.6 |
| 20260507073757 | 12 | 27 | 0.0 | 4.8 | 0.00 | 0.00 | 0.00 | 72 | 1015.6 |
| 20260507073256 | 12 | 135 | 1.6 | 1.6 | 0.00 | 0.00 | 0.00 | 72 | 1015.6 |
| 20260507072755 | 12 | 81 | 1.6 | 1.6 | 0.00 | 0.00 | 0.00 | 72 | 1015.6 |
| 20260507072254 | 12 | 243 | 0.0 | 0.0 | 0.00 | 0.00 | 0.00 | 73 | 1015.6 |
| 20260507071752 | 12 | 27 | 0.0 | 3.2 | 0.00 | 0.00 | 0.00 | 72 | 1015.2 |
| 20260507071251 | 12 | 315 | 1.6 | 1.6 | 0.00 | 0.00 | 0.00 | 72 | 1015.2 |
| 20260507070750 | 12 | 54 | 0.0 | 0.0 | 0.00 | 0.00 | 0.00 | 73 | 1015.2 |
| 20260507070249 | 12 | 279 | 1.6 | 3.2 | 0.00 | 0.00 | 0.00 | 72 | 1015.2 |
| 20260507065747 | 12 | 279 | 1.6 | 3.2 | 0.00 | 0.00 | 0.00 | 72 | 1015.2 |
| 20260507065246 | 13 | 333 | 0.0 | 3.2 | 0.00 | 0.00 | 0.00 | 72 | 1015.6 |
| 20260507064745 | 12 | 171 | 0.0 | 3.2 | 0.00 | 0.00 | 0.00 | 73 | 1015.2 |
| 20260507064244 | 12 | 288 | 1.6 | 6.4 | 0.00 | 0.00 | 0.00 | 72 | 1015.2 |
| 20260507063743 | 12 | 90 | 3.2 | 3.2 | 0.00 | 0.00 | 0.00 | 72 | 1015.2 |
| 20260507063241 | 12 | 108 | 3.2 | 4.8 | 0.00 | 0.00 | 0.00 | 72 | 1015.2 |
| 20260507062740 | 13 | 324 | 1.6 | 3.2 | 0.00 | 0.00 | 0.00 | 74 | 1015.6 |
| 20260507062239 | 12 | 279 | 1.6 | 0.0 | 0.00 | 0.00 | 0.00 | 73 | 1015.6 |
| 20260507061738 | 13 | 243 | 1.6 | 8.0 | 0.00 | 0.00 | 0.00 | 73 | 1015.2 |
| 20260507061236 | 13 | 288 | 3.2 | 3.2 | 0.00 | 0.00 | 0.00 | 73 | 1015.6 |
| 20260507060735 | 13 | 81 | 3.2 | 1.6 | 0.00 | 0.00 | 0.00 | 74 | 1015.6 |
| 20260507060234 | 13 | 81 | 3.2 | 8.0 | 0.00 | 0.00 | 0.00 | 74 | 1015.6 |
| 20260507055733 | 13 | 108 | 1.6 | 3.2 | 0.00 | 0.00 | 0.00 | 74 | 1015.2 |
| 20260507055232 | 13 | 270 | 1.6 | 6.4 | 0.00 | 0.00 | 0.00 | 74 | 1015.6 |
| 20260507054730 | 13 | 63 | 3.2 | 4.8 | 0.00 | 0.00 | 0.00 | 74 | 1015.2 |
| 20260507054229 | 13 | 144 | 1.6 | 1.6 | 0.00 | 0.00 | 0.00 | 74 | 1015.2 |
| 20260507053728 | 13 | 135 | 0.0 | 1.6 | 0.00 | 0.00 | 0.00 | 74 | 1015.6 |
| 20260507053227 | 13 | 297 | 3.2 | 4.8 | 0.00 | 0.00 | 0.00 | 73 | 1015.6 |
| 20260507052726 | 13 | 144 | 4.8 | 6.4 | 0.00 | 0.00 | 0.00 | 73 | 1015.6 |
| 20260507052224 | 13 | 261 | 3.2 | 9.7 | 0.00 | 0.00 | 0.00 | 73 | 1015.6 |
| 20260507051723 | 13 | 207 | 3.2 | 4.8 | 0.00 | 0.00 | 0.00 | 73 | 1015.2 |
| 20260507051222 | 13 | 252 | 3.2 | 1.6 | 0.00 | 0.00 | 0.00 | 73 | 1015.6 |
| 20260507050721 | 13 | 270 | 4.8 | 4.8 | 0.00 | 0.00 | 0.00 | 73 | 1015.2 |
| 20260507050219 | 13 | 72 | 3.2 | 1.6 | 0.00 | 0.00 | 0.00 | 73 | 1015.2 |
| 20260507045718 | 13 | 297 | 3.2 | 6.4 | 0.00 | 0.00 | 0.00 | 73 | 1015.2 |
| 20260507045217 | 13 | 63 | 3.2 | 9.7 | 0.00 | 0.00 | 0.00 | 72 | 1015.6 |
| 20260507044716 | 13 | 27 | 3.2 | 3.2 | 0.00 | 0.00 | 0.00 | 72 | 1015.6 |
| 20260507044215 | 13 | 144 | 1.6 | 9.7 | 0.00 | 0.00 | 0.00 | 72 | 1015.6 |
| 20260507043713 | 13 | 198 | 3.2 | 11.3 | 0.00 | 0.00 | 0.00 | 72 | 1015.2 |
| 20260507043212 | 13 | 18 | 1.6 | 6.4 | 0.00 | 0.00 | 0.00 | 72 | 1015.2 |
| 20260507042711 | 13 | 225 | 3.2 | 4.8 | 0.00 | 0.00 | 0.00 | 72 | 1015.2 |
| 20260507042210 | 14 | 9 | 4.8 | 6.4 | 0.00 | 0.00 | 0.00 | 71 | 1015.2 |
| 20260507041708 | 14 | 162 | 3.2 | 6.4 | 0.00 | 0.00 | 0.00 | 71 | 1015.2 |
| 20260507041207 | 14 | 243 | 1.6 | 1.6 | 0.00 | 0.00 | 0.00 | 72 | 1015.2 |
| 20260507040706 | 14 | 225 | 4.8 | 4.8 | 0.00 | 0.00 | 0.00 | 71 | 1014.9 |
| 20260507040205 | 14 | 306 | 3.2 | 4.8 | 0.00 | 0.00 | 0.00 | 71 | 1014.9 |
| 20260507035703 | 14 | 342 | 3.2 | 6.4 | 0.00 | 0.00 | 0.00 | 71 | 1014.9 |
| 20260507035202 | 15 | 90 | 4.8 | 9.7 | 0.00 | 0.00 | 0.00 | 71 | 1014.6 |
| 20260507034701 | 15 | 0 | 1.6 | 4.8 | 0.00 | 0.00 | 0.00 | 71 | 1014.6 |
| 20260507033659 | 15 | 27 | 1.6 | 3.2 | 0.00 | 0.00 | 0.00 | 71 | 1014.6 |
| 20260507033157 | 15 | 18 | 3.2 | 3.2 | 0.00 | 0.00 | 0.00 | 71 | 1014.6 |
| 20260507032656 | 15 | 0 | 0.0 | 3.2 | 0.00 | 0.00 | 0.00 | 71 | 1014.6 |
| 20260507032155 | 15 | 198 | 3.2 | 1.6 | 0.00 | 0.00 | 0.00 | 71 | 1014.2 |
| 20260507031654 | 15 | 252 | 1.6 | 3.2 | 0.00 | 0.00 | 0.00 | 71 | 1014.2 |
| 20260507031152 | 15 | 9 | 1.6 | 4.8 | 0.00 | 0.00 | 0.00 | 72 | 1013.9 |
| 20260507030651 | 15 | 162 | 1.6 | 1.6 | 0.00 | 0.00 | 0.00 | 72 | 1014.2 |
| 20260507030150 | 15 | 108 | 1.6 | 3.2 | 0.00 | 0.00 | 0.00 | 72 | 1014.2 |
| 20260507025649 | 15 | 126 | 1.6 | 3.2 | 0.00 | 0.00 | 0.00 | 72 | 1013.9 |
| 20260507025148 | 15 | 54 | 0.0 | 1.6 | 0.00 | 0.00 | 0.00 | 71 | 1013.9 |
| 20260507024646 | 15 | 18 | 0.0 | 1.6 | 0.00 | 0.00 | 0.00 | 70 | 1013.9 |
| 20260507024145 | 16 | 324 | 1.6 | 4.8 | 0.00 | 0.00 | 0.00 | 70 | 1013.5 |
| 20260507023644 | 16 | 351 | 1.6 | 3.2 | 0.00 | 0.00 | 0.00 | 70 | 1013.9 |
| 20260507023143 | 16 | 18 | 3.2 | 11.3 | 0.00 | 0.00 | 0.00 | 69 | 1013.9 |
| 20260507022642 | 16 | 153 | 1.6 | 3.2 | 0.00 | 0.00 | 0.00 | 69 | 1013.9 |
| 20260507021639 | 16 | 189 | 3.2 | 3.2 | 0.00 | 0.00 | 0.00 | 69 | 1013.5 |
| 20260507021138 | 16 | 261 | 1.6 | 6.4 | 0.00 | 0.00 | 0.00 | 68 | 1013.9 |
| 20260507020637 | 16 | 36 | 3.2 | 3.2 | 0.00 | 0.00 | 0.00 | 68 | 1013.5 |
| 20260507020136 | 16 | 243 | 4.8 | 6.4 | 0.00 | 0.00 | 0.00 | 67 | 1013.9 |
| 20260507015635 | 17 | 54 | 3.2 | 3.2 | 0.00 | 0.00 | 0.00 | 67 | 1013.9 |
| 20260507015133 | 17 | 243 | 3.2 | 3.2 | 0.00 | 0.00 | 0.00 | 66 | 1013.9 |
| 20260507014632 | 17 | 243 | 3.2 | 6.4 | 0.00 | 0.00 | 0.00 | 66 | 1013.9 |
| 20260507014131 | 17 | 81 | 3.2 | 3.2 | 0.00 | 0.00 | 0.00 | 66 | 1013.9 |
| 20260507013630 | 17 | 306 | 3.2 | 6.4 | 0.00 | 0.00 | 0.00 | 66 | 1013.9 |
| 20260507013128 | 17 | 342 | 4.8 | 3.2 | 0.00 | 0.00 | 0.00 | 66 | 1013.5 |
| 20260507012627 | 17 | 297 | 3.2 | 4.8 | 0.00 | 0.00 | 0.00 | 66 | 1013.9 |
| 20260507012126 | 17 | 279 | 3.2 | 3.2 | 0.00 | 0.00 | 0.00 | 66 | 1013.9 |
| 20260507011123 | 18 | 117 | 3.2 | 3.2 | 0.00 | 0.00 | 0.00 | 65 | 1013.9 |
| 20260507010622 | 18 | 144 | 3.2 | 4.8 | 0.00 | 0.00 | 0.00 | 65 | 1013.9 |
| 20260507010121 | 18 | 0 | 4.8 | 4.8 | 0.00 | 0.00 | 0.00 | 64 | 1013.9 |
| 20260507005620 | 18 | 45 | 3.2 | 3.2 | 0.00 | 0.00 | 0.00 | 64 | 1013.9 |
| 20260507005118 | 18 | 135 | 3.2 | 4.8 | 0.00 | 0.00 | 0.00 | 64 | 1013.9 |
| 20260507004617 | 18 | 171 | 4.8 | 6.4 | 0.00 | 0.00 | 0.00 | 63 | 1013.5 |
| 20260507004116 | 19 | 342 | 3.2 | 3.2 | 0.00 | 0.00 | 0.00 | 64 | 1013.5 |
| 20260507003615 | 19 | 279 | 3.2 | 8.0 | 0.00 | 0.00 | 0.00 | 64 | 1013.5 |
| 20260507003113 | 20 | 90 | 1.6 | 3.2 | 0.00 | 0.00 | 0.00 | 64 | 1013.5 |
| 20260507002612 | 20 | 351 | 1.6 | 1.6 | 0.00 | 0.00 | 0.00 | 64 | 1013.5 |
| 20260507002111 | 20 | 315 | 4.8 | 6.4 | 0.00 | 0.00 | 0.00 | 63 | 1013.5 |
| 20260507001610 | 20 | 306 | 1.6 | 3.2 | 0.00 | 0.00 | 0.00 | 63 | 1013.5 |
| 20260507001109 | 20 | 297 | 3.2 | 3.2 | 0.00 | 0.00 | 0.00 | 62 | 1013.5 |
| 20260507000607 | 20 | 252 | 3.2 | 6.4 | 0.00 | 0.00 | 0.00 | 62 | 1013.5 |
| 20260507000106 | 21 | 270 | 1.6 | 1.6 | 0.00 | 0.00 | 0.00 | 61 | 1013.5 |
| 20260506235605 | 21 | 234 | 1.6 | 3.2 | 0.00 | 0.00 | 0.00 | 59 | 1013.5 |
| 20260506235104 | 20 | 0 | 1.6 | 1.6 | 0.00 | 0.00 | 0.00 | 61 | 1013.5 |
| 20260506234602 | 21 | 54 | 1.6 | 3.2 | 0.00 | 0.00 | 0.00 | 59 | 1013.5 |
| 20260506234101 | 20 | 207 | 1.6 | 1.6 | 0.00 | 0.00 | 0.00 | 59 | 1013.5 |
| 20260506233600 | 21 | 45 | 3.2 | 3.2 | 0.00 | 0.00 | 0.00 | 58 | 1013.5 |
| 20260506233059 | 21 | 270 | 0.0 | 3.2 | 0.00 | 0.00 | 0.00 | 56 | 1013.5 |
| 20260506232558 | 21 | 342 | 1.6 | 4.8 | 0.00 | 0.00 | 0.00 | 57 | 1013.5 |
| 20260506232056 | 21 | 90 | 0.0 | 3.2 | 0.00 | 0.00 | 0.00 | 59 | 1013.5 |
| 20260506231555 | 20 | 180 | 1.6 | 3.2 | 0.00 | 0.00 | 0.00 | 58 | 1013.5 |
| 20260506231054 | 20 | 189 | 3.2 | 1.6 | 0.00 | 0.00 | 0.00 | 60 | 1013.5 |
| 20260506230553 | 20 | 306 | 1.6 | 3.2 | 0.00 | 0.00 | 0.00 | 60 | 1013.9 |
| 20260506230052 | 20 | 288 | 1.6 | 3.2 | 0.00 | 0.00 | 0.00 | 60 | 1013.9 |
| 20260506225550 | 20 | 90 | 1.6 | 1.6 | 0.00 | 0.00 | 0.00 | 59 | 1013.9 |
| 20260506225049 | 20 | 72 | 1.6 | 6.4 | 0.00 | 0.00 | 0.00 | 59 | 1013.5 |
| 20260506224548 | 20 | 306 | 3.2 | 3.2 | 0.00 | 0.00 | 0.00 | 60 | 1013.9 |
| 20260506224047 | 20 | 63 | 1.6 | 4.8 | 0.00 | 0.00 | 0.00 | 60 | 1013.9 |
| 20260506223546 | 20 | 36 | 0.0 | 1.6 | 0.00 | 0.00 | 0.00 | 60 | 1014.2 |
| 20260506223044 | 20 | 243 | 1.6 | 3.2 | 0.00 | 0.00 | 0.00 | 60 | 1014.2 |
| 20260506222543 | 20 | 180 | 0.0 | 1.6 | 0.00 | 0.00 | 0.00 | 60 | 1014.2 |
| 20260506222042 | 20 | 153 | 1.6 | 3.2 | 0.00 | 0.00 | 0.00 | 61 | 1013.9 |
| 20260506221541 | 19 | 36 | 3.2 | 1.6 | 0.00 | 0.00 | 0.00 | 62 | 1014.2 |
| 20260506221039 | 19 | 351 | 1.6 | 3.2 | 0.00 | 0.00 | 0.00 | 62 | 1014.2 |
| 20260506220538 | 19 | 261 | 6.4 | 11.3 | 0.00 | 0.00 | 0.00 | 61 | 1014.2 |
| 20260506220037 | 19 | 333 | 1.6 | 3.2 | 0.00 | 0.00 | 0.00 | 63 | 1014.2 |
| 20260506215536 | 20 | 243 | 3.2 | 6.4 | 0.00 | 0.00 | 0.00 | 62 | 1014.2 |
| 20260506215034 | 20 | 351 | 0.0 | 1.6 | 0.00 | 0.00 | 0.00 | 62 | 1014.2 |
| 20260506214533 | 19 | 180 | 1.6 | 3.2 | 0.00 | 0.00 | 0.00 | 64 | 1013.9 |
| 20260506214032 | 18 | 180 | 3.2 | 3.2 | 0.00 | 0.00 | 0.00 | 64 | 1014.2 |
| 20260506213531 | 19 | 261 | 3.2 | 1.6 | 0.00 | 0.00 | 0.00 | 62 | 1014.2 |
| 20260506213030 | 18 | 54 | 1.6 | 4.8 | 0.00 | 0.00 | 0.00 | 65 | 1014.2 |
| 20260506212528 | 18 | 243 | 1.6 | 4.8 | 0.00 | 0.00 | 0.00 | 65 | 1014.2 |
| 20260506212027 | 18 | 36 | 1.6 | 3.2 | 0.00 | 0.00 | 0.00 | 65 | 1014.6 |
| 20260506211526 | 18 | 225 | 1.6 | 3.2 | 0.00 | 0.00 | 0.00 | 64 | 1014.6 |
| 20260506211025 | 18 | 333 | 0.0 | 1.6 | 0.00 | 0.00 | 0.00 | 64 | 1014.6 |
| 20260506210523 | 18 | 315 | 0.0 | 1.6 | 0.00 | 0.00 | 0.00 | 65 | 1014.6 |
| 20260506210022 | 18 | 153 | 1.6 | 1.6 | 0.00 | 0.00 | 0.00 | 67 | 1014.6 |
| 20260506205521 | 18 | 126 | 3.2 | 3.2 | 0.00 | 0.00 | 0.00 | 65 | 1014.9 |
| 20260506205019 | 18 | 180 | 1.6 | 3.2 | 0.00 | 0.00 | 0.00 | 66 | 1014.6 |
| 20260506204518 | 18 | 144 | 3.2 | 6.4 | 0.00 | 0.00 | 0.00 | 65 | 1014.6 |
| 20260506204017 | 18 | 135 | 1.6 | 4.8 | 0.00 | 0.00 | 0.00 | 65 | 1014.6 |
| 20260506203516 | 18 | 162 | 1.6 | 3.2 | 0.00 | 0.00 | 0.00 | 66 | 1014.6 |
| 20260506203014 | 18 | 45 | 0.0 | 1.6 | 0.00 | 0.00 | 0.00 | 65 | 1014.6 |
| 20260506202513 | 18 | 306 | 4.8 | 6.4 | 0.00 | 0.00 | 0.00 | 66 | 1014.6 |
| 20260506202012 | 18 | 288 | 1.6 | 4.8 | 0.00 | 0.00 | 0.00 | 65 | 1014.6 |
| 20260506201511 | 18 | 324 | 1.6 | 3.2 | 0.00 | 0.00 | 0.00 | 66 | 1014.6 |
| 20260506201010 | 18 | 63 | 3.2 | 3.2 | 0.00 | 0.00 | 0.00 | 66 | 1014.6 |
| 20260506200508 | 18 | 171 | 3.2 | 3.2 | 0.00 | 0.00 | 0.00 | 66 | 1014.6 |
| 20260506200007 | 18 | 81 | 1.6 | 3.2 | 0.00 | 0.00 | 0.00 | 68 | 1014.6 |
| 20260506195506 | 17 | 225 | 1.6 | 3.2 | 0.00 | 0.00 | 0.00 | 68 | 1014.9 |
| 20260506195005 | 17 | 306 | 1.6 | 6.4 | 0.00 | 0.00 | 0.00 | 68 | 1014.9 |
| 20260506194002 | 17 | 45 | 3.2 | 4.8 | 0.00 | 0.00 | 0.00 | 68 | 1014.9 |
| 20260506193501 | 17 | 279 | 1.6 | 3.2 | 0.00 | 0.00 | 0.00 | 68 | 1015.2 |
| 20260506192459 | 17 | 288 | 4.8 | 4.8 | 0.00 | 0.00 | 0.00 | 71 | 1014.9 |
| 20260506191957 | 17 | 144 | 3.2 | 3.2 | 0.00 | 0.00 | 0.00 | 71 | 1015.2 |
| 20260506191456 | 16 | 270 | 4.8 | 3.2 | 0.00 | 0.00 | 0.00 | 72 | 1014.9 |
| 20260506190955 | 16 | 153 | 4.8 | 11.3 | 0.00 | 0.00 | 0.00 | 70 | 1014.9 |
| 20260506190454 | 17 | 108 | 3.2 | 3.2 | 0.00 | 0.00 | 0.00 | 70 | 1014.9 |
| 20260506185952 | 17 | 189 | 3.2 | 3.2 | 0.00 | 0.00 | 0.00 | 70 | 1014.9 |
| 20260506185451 | 17 | 126 | 1.6 | 6.4 | 0.00 | 0.00 | 0.00 | 69 | 1014.6 |
| 20260506184950 | 17 | 288 | 3.2 | 1.6 | 0.00 | 0.00 | 0.00 | 70 | 1014.9 |
| 20260506184449 | 16 | 288 | 4.8 | 4.8 | 0.00 | 0.00 | 0.00 | 71 | 1014.9 |
| 20260506183948 | 16 | 0 | 4.8 | 4.8 | 0.00 | 0.00 | 0.00 | 73 | 1014.6 |
| 20260506183447 | 16 | 162 | 1.6 | 3.2 | 0.00 | 0.00 | 0.00 | 73 | 1014.9 |
| 20260506182945 | 16 | 288 | 3.2 | 4.8 | 0.00 | 0.00 | 0.00 | 74 | 1014.9 |
| 20260506182444 | 16 | 351 | 0.0 | 3.2 | 0.00 | 0.00 | 0.00 | 74 | 1014.9 |
| 20260506181943 | 16 | 144 | 1.6 | 3.2 | 0.00 | 0.00 | 0.00 | 73 | 1015.2 |
| 20260506181442 | 16 | 54 | 0.0 | 1.6 | 0.00 | 0.00 | 0.00 | 75 | 1014.9 |
| 20260506180940 | 15 | 198 | 1.6 | 0.0 | 0.00 | 0.00 | 0.00 | 75 | 1014.9 |
| 20260506180439 | 15 | 117 | 3.2 | 6.4 | 0.00 | 0.00 | 0.00 | 75 | 1014.9 |
| 20260506175938 | 15 | 252 | 1.6 | 1.6 | 0.00 | 0.00 | 0.00 | 76 | 1014.9 |
| 20260506175437 | 15 | 252 | 0.0 | 3.2 | 0.00 | 0.00 | 0.00 | 76 | 1015.2 |
| 20260506174936 | 15 | 117 | 0.0 | 1.6 | 0.00 | 0.00 | 0.00 | 76 | 1014.9 |
| 20260506174434 | 15 | 342 | 3.2 | 3.2 | 0.00 | 0.00 | 0.00 | 77 | 1014.9 |
| 20260506173933 | 15 | 9 | 0.0 | 1.6 | 0.00 | 0.00 | 0.00 | 76 | 1014.9 |
| 20260506173432 | 15 | 189 | 0.0 | 0.0 | 0.00 | 0.00 | 0.00 | 76 | 1014.9 |
| 20260506172931 | 15 | 117 | 0.0 | 1.6 | 0.00 | 0.00 | 0.00 | 75 | 1014.6 |
| 20260506172430 | 15 | 108 | 0.0 | 0.0 | 0.00 | 0.00 | 0.00 | 75 | 1014.6 |
| 20260506171928 | 15 | 72 | 0.0 | 0.0 | 0.00 | 0.00 | 0.00 | 75 | 1014.6 |
| 20260506171427 | 15 | 117 | 0.0 | 3.2 | 0.00 | 0.00 | 0.00 | 76 | 1014.6 |
| 20260506170926 | 15 | 81 | 0.0 | 1.6 | 0.00 | 0.00 | 0.00 | 76 | 1014.6 |
| 20260506170425 | 14 | 351 | 0.0 | 0.0 | 0.00 | 0.00 | 0.00 | 77 | 1014.9 |
| 20260506165924 | 14 | 126 | 0.0 | 3.2 | 0.00 | 0.00 | 0.00 | 77 | 1014.6 |
| 20260506165422 | 14 | 54 | 1.6 | 3.2 | 0.00 | 0.00 | 0.00 | 77 | 1014.9 |
| 20260506164921 | 15 | 18 | 1.6 | 3.2 | 0.00 | 0.00 | 0.00 | 77 | 1014.6 |
| 20260506164420 | 15 | 135 | 0.0 | 0.0 | 0.00 | 0.00 | 0.00 | 76 | 1014.6 |
| 20260506163919 | 15 | 135 | 0.0 | 1.6 | 0.00 | 0.00 | 0.00 | 77 | 1014.6 |
| 20260506163417 | 15 | 324 | 1.6 | 3.2 | 0.00 | 0.00 | 0.00 | 77 | 1014.9 |
| 20260506162916 | 14 | 63 | 0.0 | 3.2 | 0.00 | 0.00 | 0.00 | 76 | 1014.6 |
| 20260506162415 | 14 | 243 | 1.6 | 3.2 | 0.00 | 0.00 | 0.00 | 76 | 1014.6 |
| 20260506161914 | 14 | 153 | 1.6 | 3.2 | 0.00 | 0.00 | 0.00 | 77 | 1014.6 |
| 20260506161412 | 14 | 18 | 0.0 | 3.2 | 0.00 | 0.00 | 0.00 | 76 | 1014.6 |
| 20260506160911 | 14 | 180 | 0.0 | 0.0 | 0.00 | 0.00 | 0.00 | 77 | 1014.6 |
| 20260506160410 | 14 | 180 | 1.6 | 3.2 | 0.00 | 0.00 | 0.00 | 78 | 1014.2 |
| 20260506155909 | 14 | 297 | 1.6 | 4.8 | 0.00 | 0.00 | 0.00 | 77 | 1014.2 |
| 20260506155408 | 14 | 297 | 1.6 | 3.2 | 0.00 | 0.00 | 0.00 | 79 | 1014.6 |
| 20260506154907 | 13 | 216 | 4.8 | 6.4 | 0.00 | 0.00 | 0.00 | 78 | 1013.9 |
| 20260506153904 | 13 | 99 | 3.2 | 6.4 | 0.00 | 0.00 | 0.00 | 79 | 1013.9 |
| 20260506153403 | 13 | 9 | 1.6 | 4.8 | 0.00 | 0.00 | 0.00 | 79 | 1014.6 |
| 20260506152902 | 13 | 189 | 0.0 | 1.6 | 0.00 | 0.00 | 0.00 | 80 | 1014.6 |
| 20260506152401 | 13 | 216 | 0.0 | 1.6 | 0.00 | 0.00 | 0.00 | 79 | 1014.9 |
| 20260506151859 | 13 | 36 | 0.0 | 3.2 | 0.00 | 0.00 | 0.00 | 80 | 1014.6 |
| 20260506151358 | 13 | 270 | 0.0 | 3.2 | 0.00 | 0.00 | 0.00 | 80 | 1014.9 |
| 20260506150356 | 13 | 54 | 1.6 | 3.2 | 0.00 | 0.00 | 0.00 | 79 | 1014.6 |
| 20260506145855 | 13 | 144 | 0.0 | 3.2 | 0.00 | 0.00 | 0.00 | 80 | 1014.6 |
| 20260506145353 | 13 | 36 | 1.6 | 1.6 | 0.00 | 0.00 | 0.00 | 81 | 1014.6 |
| 20260506144852 | 13 | 342 | 0.0 | 1.6 | 0.00 | 0.00 | 0.00 | 80 | 1014.2 |
| 20260506144351 | 13 | 63 | 0.0 | 3.2 | 0.00 | 0.00 | 0.00 | 80 | 1014.6 |
| 20260506143850 | 13 | 0 | 0.0 | 1.6 | 0.00 | 0.00 | 0.00 | 80 | 1014.6 |
| 20260506143348 | 13 | 261 | 0.0 | 0.0 | 0.00 | 0.00 | 0.00 | 79 | 1014.6 |
| 20260506142847 | 13 | 144 | 0.0 | 0.0 | 0.00 | 0.00 | 0.00 | 80 | 1013.9 |
| 20260506142346 | 13 | 81 | 0.0 | 1.6 | 0.00 | 0.00 | 0.00 | 79 | 1013.9 |
| 20260506141845 | 14 | 18 | 0.0 | 1.6 | 0.00 | 0.00 | 0.00 | 79 | 1013.9 |
| 20260506141343 | 13 | 81 | 0.0 | 0.0 | 0.00 | 0.00 | 0.00 | 81 | 1013.5 |
| 20260506140842 | 13 | 18 | 0.0 | 0.0 | 0.00 | 0.00 | 0.00 | 80 | 1013.9 |
| 20260506140341 | 13 | 144 | 0.0 | 3.2 | 0.00 | 0.00 | 0.00 | 80 | 1013.5 |
| 20260506135840 | 13 | 99 | 0.0 | 1.6 | 0.00 | 0.00 | 0.00 | 80 | 1013.9 |
| 20260506135338 | 13 | 243 | 0.0 | 0.0 | 0.00 | 0.00 | 0.00 | 81 | 1013.9 |
| 20260506134837 | 13 | 171 | 0.0 | 0.0 | 0.00 | 0.00 | 0.00 | 80 | 1013.5 |
| 20260506134336 | 13 | 171 | 0.0 | 0.0 | 0.00 | 0.00 | 0.00 | 81 | 1013.5 |
| 20260506133835 | 13 | 324 | 0.0 | 0.0 | 0.00 | 0.00 | 0.00 | 81 | 1013.5 |
| 20260506133334 | 13 | 135 | 0.0 | 0.0 | 0.00 | 0.00 | 0.00 | 81 | 1013.5 |
| 20260506132832 | 13 | 135 | 0.0 | 0.0 | 0.00 | 0.00 | 0.00 | 81 | 1013.5 |
| 20260506132331 | 13 | 324 | 0.0 | 0.0 | 0.00 | 0.00 | 0.00 | 81 | 1013.5 |
| 20260506131830 | 13 | 189 | 0.0 | 0.0 | 0.00 | 0.00 | 0.00 | 81 | 1013.5 |
| 20260506131328 | 13 | 126 | 0.0 | 0.0 | 0.00 | 0.00 | 0.00 | 81 | 1013.2 |
| 20260506130827 | 13 | 288 | 0.0 | 0.0 | 0.00 | 0.00 | 0.00 | 81 | 1013.5 |
| 20260506130326 | 13 | 72 | 0.0 | 1.6 | 0.00 | 0.00 | 0.00 | 80 | 1013.5 |
| 20260506125825 | 13 | 18 | 0.0 | 0.0 | 0.00 | 0.00 | 0.00 | 81 | 1013.5 |
| 20260506125324 | 13 | 198 | 0.0 | 0.0 | 0.00 | 0.00 | 0.00 | 82 | 1013.5 |
| 20260506124822 | 13 | 153 | 0.0 | 1.6 | 0.00 | 0.00 | 0.00 | 81 | 1013.2 |
| 20260506124321 | 13 | 162 | 0.0 | 0.0 | 0.00 | 0.00 | 0.00 | 81 | 1013.2 |
| 20260506123820 | 13 | 45 | 0.0 | 0.0 | 0.00 | 0.00 | 0.00 | 81 | 1013.2 |
| 20260506123319 | 13 | 9 | 0.0 | 0.0 | 0.00 | 0.00 | 0.00 | 81 | 1013.2 |
| 20260506122817 | 13 | 261 | 0.0 | 3.2 | 0.00 | 0.00 | 0.00 | 81 | 1013.2 |
| 20260506122316 | 13 | 252 | 0.0 | 1.6 | 0.00 | 0.00 | 0.00 | 81 | 1013.2 |
| 20260506121815 | 13 | 243 | 1.6 | 1.6 | 0.00 | 0.00 | 0.00 | 81 | 1013.2 |
| 20260506121314 | 13 | 297 | 0.0 | 1.6 | 0.00 | 0.00 | 0.00 | 81 | 1013.2 |
| 20260506120812 | 13 | 324 | 1.6 | 1.6 | 0.00 | 0.00 | 0.00 | 80 | 1013.2 |
| 20260506120311 | 13 | 81 | 1.6 | 3.2 | 0.00 | 0.00 | 0.00 | 80 | 1013.2 |
| 20260506115810 | 13 | 117 | 0.0 | 3.2 | 0.00 | 0.00 | 0.00 | 80 | 1013.2 |
| 20260506115309 | 13 | 324 | 0.0 | 1.6 | 0.00 | 0.00 | 0.00 | 80 | 1012.9 |
| 20260506114808 | 13 | 144 | 1.6 | 1.6 | 0.00 | 0.00 | 0.00 | 80 | 1013.2 |
| 20260506114306 | 13 | 36 | 0.0 | 1.6 | 0.00 | 0.00 | 0.00 | 80 | 1012.9 |
| 20260506113805 | 13 | 207 | 1.6 | 3.2 | 0.00 | 0.00 | 0.00 | 79 | 1012.9 |
| 20260506113304 | 13 | 81 | 1.6 | 1.6 | 0.00 | 0.00 | 0.00 | 79 | 1012.9 |
| 20260506112802 | 13 | 324 | 0.0 | 3.2 | 0.00 | 0.00 | 0.00 | 79 | 1012.9 |
| 20260506112301 | 13 | 261 | 0.0 | 1.6 | 0.00 | 0.00 | 0.00 | 79 | 1012.9 |
| 20260506111800 | 13 | 90 | 0.0 | 1.6 | 0.00 | 0.00 | 0.00 | 78 | 1012.9 |
| 20260506111259 | 13 | 72 | 0.0 | 0.0 | 0.00 | 0.00 | 0.00 | 78 | 1012.9 |
| 20260506110758 | 13 | 135 | 1.6 | 3.2 | 0.00 | 0.00 | 0.00 | 78 | 1012.5 |
| 20260506110256 | 13 | 315 | 1.6 | 3.2 | 0.00 | 0.00 | 0.00 | 78 | 1012.5 |
| 20260506105755 | 13 | 135 | 0.0 | 1.6 | 0.00 | 0.00 | 0.00 | 78 | 1012.5 |
| 20260506105254 | 13 | 198 | 1.6 | 1.6 | 0.00 | 0.00 | 0.00 | 78 | 1012.2 |
| 20260506104753 | 13 | 9 | 0.0 | 0.0 | 0.00 | 0.00 | 0.00 | 79 | 1012.2 |
| 20260506104252 | 13 | 81 | 0.0 | 3.2 | 0.00 | 0.00 | 0.00 | 78 | 1012.2 |
| 20260506103750 | 13 | 36 | 0.0 | 1.6 | 0.00 | 0.00 | 0.00 | 79 | 1012.2 |
| 20260506103249 | 13 | 261 | 0.0 | 0.0 | 0.00 | 0.00 | 0.00 | 78 | 1012.2 |
| 20260506102748 | 13 | 234 | 0.0 | 1.6 | 0.00 | 0.00 | 0.00 | 78 | 1012.2 |
| 20260506102247 | 13 | 315 | 0.0 | 0.0 | 0.00 | 0.00 | 0.00 | 79 | 1011.9 |
| 20260506101745 | 13 | 315 | 0.0 | 3.2 | 0.00 | 0.00 | 0.00 | 78 | 1011.9 |
| 20260506101244 | 13 | 9 | 0.0 | 3.2 | 0.00 | 0.00 | 0.00 | 78 | 1011.9 |
| 20260506100743 | 13 | 189 | 0.0 | 1.6 | 0.00 | 0.00 | 0.00 | 78 | 1011.9 |
| 20260506100242 | 13 | 252 | 0.0 | 1.6 | 0.00 | 0.00 | 0.00 | 78 | 1011.9 |